Location: Shenandoah County Park
(38.9356°N, 78.4524°W)
Time: 14:07:07
(UTC-05:00)

Transit 2A - Pass Details

Date: 17 October 2025
Orbit: 591 x 954 km, 66.7° (Epoch: 07 November)

Event Time Altitude Azimuth Distance (km) Brightness Sun altitude
Exits shadow 06:33:30 14° 276° (W) 2,397 7.9 -10.9°
Maximum altitude 06:35:16 15° 257° (WSW) 2,301 7.9 -10.5°
Drops below altitude 10° 06:38:43 10° 223° (SW) 2,674 8.4 -9.9°
Sets 06:42:23 0° 202° (SSW) 3,604 9.3 -9.1°
